Location: Newark
(46.7000°N, 60.6000°W)
Time: 21:35:54
(UTC+00:00)

Vanguard 1 Rocket - Pass Details

Date: 06 November 2020
Orbit: 656 x 4221 km, 34.3° (Epoch: 30 November)

Event Time Altitude Azimuth Distance (km) Brightness Sun altitude
Rises 13:19:24 0° 247° (WSW) 4,534 10.8 19.0°
Reaches altitude 10° 13:23:34 10° 235° (SW) 3,035 10.1 19.4°
Maximum altitude 13:28:47 24° 184° (S) 1,710 9.8 19.9°
Drops below altitude 10° 13:32:39 10° 130° (SE) 2,185 11.1 20.3°
Sets 13:35:06 0° 115° (ESE) 2,996 11.0 20.5°
